TIME,DELAY(SENSOR),PRES,OXYGEN,RAWTEMP,T(OPTODE),TCPHASE,FLUOR,BETA(BETA700),BETA(BETA412),BETA(BETA440),CDOM,C(CSC),ED(ED412.40),ED(ED444.00),ED(ED489.70),ED(ED554.30),LU(LU411.80),LU(LU443.40),LU(LU489.60),LU(LU554.10),COMP,TILTX,TILTY,CHECK
1375413341,5807,854.2999877929688000,44.3560600280761700,660.0375976562500000,4.6267337799072270,54.3500099182128900,53,102,86,79,78,15298,2147754121,2147423634,2148012800,2147871058,2147640054,2147052507,2148256292,2147196571,1606,4,13,38803
1375416937,5807,935.3699951171875000,48.0085105895996100,669.2637939453125000,4.3225140571594240,53.9383316040039060,53,99,88,79,78,15275,2147754624,2147422555,2148013595,2147874633,2147640429,2147051712,2148265097,2147195995,3058,4,13,37338
1375420537,5811,961.7299804687500000,49.9013214111328100,671.3872070312500000,4.2523608207702640,53.7040100097656250,53,99,88,78,78,15300,2147756187,2147421814,2148013321,2147878646,2147641280,2147055488,2148260114,2147195282,3341,4,13,1080
1375424137,5806,989.5399780273438000,50.7768592834472660,674.9503784179688000,4.1345272064208980,53.6289291381835940,53,97,85,78,80,15297,2147757165,2147421650,2148014107,2147875620,2147644717,2147055049,2148264338,2147194706,118,4,13,30436
1375427737,5808,986.3099975585938000,50.4969596862793000,675.2025146484375000,4.1261839866638180,53.6668586730957000,53,99,85,78,79,15285,2147758710,2147424301,2148011044,2147872914,2147641051,2147055424,2148259136,2147194075,1225,3,13,2824
1375431337,5810,994.2199707031250000,50.8020401000976560,676.8076171875000000,4.0730528831481930,53.6483688354492200,52,101,85,78,79,15296,2147755017,2147422198,2148012662,2147876105,2147644169,2147047360,2148261248,2147195894,3491,4,13,64326
1375434937,5809,997.1300048828125000,50.5905494689941400,676.0537719726562000,4.0980091094970700,53.6652488708496100,53,101,85,78,80,15285,2147759305,2147421878,2148014957,2147872768,2147644918,2147051949,2148260370,2147201152,146,4,13,25345
1375438537,5810,996.0200195312500000,50.6209793090820300,676.3787231445312000,4.0872540473937990,53.6667900085449200,52,98,83,78,80,15280,2147760283,2147425005,2148012818,2147872210,2147643757,2147047698,2148265417,2147197476,266,4,13,49280
1375442137,5809,1002.2000122070312000,50.7072105407714840,676.9022827148438000,4.0699181556701660,53.6594505310058600,52,98,88,80,79,15287,2147757174,2147425636,2148014528,2147874514,2147644278,2147053101,2148263579,2147193508,114,4,13,32730
1375445737,5808,1003.0700073242188000,50.5033683776855500,676.0889282226562000,4.0968461036682130,53.6802902221679700,53,99,84,78,80,15287,2147757860,2147424054,2148014747,2147874651,2147643437,2147054701,2148265252,2147196379,23,4,13,17235
1375449337,5806,1003.3900146484375000,50.6123504638671900,676.3098144531250000,4.0895371437072750,53.6691703796386700,52,101,85,78,79,15284,2147756013,2147425609,2148013622,2147876297,2147642688,2147051419,2148264813,2147193965,206,4,13,22745
1375452937,5810,1001.7299804687500000,50.3869285583496100,676.7343139648438000,4.0754799842834470,53.7058906555175800,52,98,87,78,79,15284,2147756717,2147423835,2148013129,2147875254,2147642550,2147050075,2148264411,2147199826,342,4,13,57785
1375456537,5809,1004.8400268554688000,50.4141387939453100,676.4025268554688000,4.0864658355712890,53.6954307556152340,52,113,84,79,80,15285,2147757622,2147423862,2148015186,2147876132,2147645924,2147055451,2148265526,2147197366,504,4,13,24749
1375460137,5809,1004.1699829101562000,50.5186500549316400,676.0723266601562000,4.0973968505859375,53.6725692749023440,53,99,84,79,79,15288,2147757504,2147425216,2148014665,2147873837,2147644580,2147053522,2148266880,2147196306,343,4,13,28757
1375463737,5810,1010.9099731445312000,50.3931083679199200,676.0825805664062000,4.0970549583435060,53.6940803527832000,53,99,88,79,79,15285,2147754185,2147428425,2148012955,2147876306,2147642148,2147056009,2148263003,2147197120,3300,4,13,43711
1375467337,5810,1018.3900146484375000,50.4768218994140600,675.0792236328125000,4.1302661895751950,53.6677207946777340,52,99,83,79,79,15285,2147755629,2147421659,2148013924,2147873865,2147641627,2147048539,2148262208,2147196882,23,4,13,59830
1375470937,5812,1011.3099975585938000,49.9852294921875000,674.8914794921875000,4.1364750862121580,53.7369499206543000,53,98,84,78,79,15284,2147756589,2147421156,2148011520,2147874998,2147644406,2147051355,2148264100,2147194368,14,4,13,49349
1375474537,5810,1007.9699707031250000,49.8575706481933600,676.5225830078125000,4.0824871063232420,53.7697792053222660,52,100,80,79,78,15283,2147757440,2147428233,2148012370,2147875382,2147639972,2147053915,2148264667,2147198445,2,4,13,42677
1375478137,5805,1015.2000122070312000,50.3551788330078100,675.9572143554688000,4.1012101173400880,53.6971092224121100,52,99,87,78,79,15284,2147757805,2147423698,2148014628,2147875209,2147639588,2147053449,2148262208,2147198793,563,4,13,3004
1375481737,5807,1015.3099975585938000,50.2391700744628900,675.2384033203125000,4.1249980926513670,53.7041397094726560,52,98,88,79,78,15280,2147752512,2147423771,2148015177,2147871725,2147642944,2147054985,2148261595,2147197513,3273,4,13,37631
1375485337,5812,1014.8099975585938000,49.8534393310546900,675.1107788085938000,4.1292190551757810,53.7540016174316400,53,97,84,79,78,15284,2147758208,2147423680,2148016402,2147878052,2147641819,2147052205,2148259291,2147197641,6,4,13,25457
1375488937,5807,1019.3699951171875000,49.7435302734375000,675.0144042968750000,4.1324100494384770,53.7717285156250000,52,97,84,79,80,15283,2147754441,2147422125,2148012342,2147877677,2147640923,2147054171,2148260333,2147198454,41,4,13,61861
1375492537,5810,1014.0599975585938000,49.9037208557128900,674.9252929687500000,4.1353588104248050,53.7482299804687500,51,99,87,77,78,15280,2147752576,2147423634,2148015597,2147875520,2147640630,2147051419,2148265910,2147197229,92,4,13,47198
1375496137,5809,1016.7999877929688000,49.4516410827636700,674.9680786132812000,4.1339440345764160,53.8063011169433600,52,97,85,78,79,15282,2147759780,2147424265,2148011931,2147874898,2147640493,2147054381,2148262052,2147194706,31,4,13,28290
1375499737,5811,1011.5700073242188000,49.5812988281250000,675.7717895507812000,4.1073441505432130,53.8000411987304700,52,99,87,79,80,15282,2147756507,2147427812,2148011648,2147871478,2147639872,2147051712,2148264329,2147199414,3550,4,13,6261
1375503337,5808,1015.3200073242188000,49.9172210693359400,675.8602294921875000,4.1044201850891110,53.7567787170410160,52,99,88,78,80,15280,2147757504,2147424064,2148013174,2147876123,2147639734,2147045321,2148262848,2147198281,3395,4,13,12626
1375506937,5808,1014.2299804687500000,49.5132102966308600,675.9680786132812000,4.1008448600769040,53.8113899230957000,52,99,84,78,80,15281,2147754322,2147422217,2148013833,2147872978,2147640923,2147046674,2148263122,2147198308,404,4,13,18922
1375510537,5811,1011.6099853515625000,49.0295791625976560,676.0490112304688000,4.0981669425964355,53.8795394897460940,53,102,85,80,80,15282,2147757330,2147423634,2148014336,2147874395,2147644452,2147047003,2148262829,2147196105,82,4,13,5433
1375514137,5806,1006.6599731445312000,50.2988281250000000,677.8699951171875000,4.0378680229187010,53.7300910949707000,52,97,87,79,81,15279,2147754304,2147423076,2148010294,2147875785,2147639433,2147046939,2148262930,2147199204,118,4,13,22109
1375517737,5812,1011.9600219726562000,50.4316291809082000,676.8306884765625000,4.0722889900207520,53.6993904113769500,52,97,81,79,80,15280,2147757138,2147424109,2148014281,2147875904,2147640786,2147048859,2148264822,2147196662,118,4,13,57251
1375521337,5810,1006.0200195312500000,50.0073509216308600,677.3632812500000000,4.0546488761901855,53.7626914978027340,54,99,87,79,79,15279,2147756470,2147426230,2148012004,2147876050,2147639186,2147052909,2148259821,2147196635,64,4,13,57779
1375524937,5807,1006.4600219726562000,50.1409606933593750,677.4118041992188000,4.0530447959899900,53.7412490844726560,52,95,88,78,79,15273,2147760320,2147425069,2148012699,2147875254,2147645010,2147049837,2148263222,2147196800,248,4,13,28700
1375528537,5808,1020.4799804687500000,50.3862304687500000,676.7293701171875000,4.0756440162658690,53.7048187255859400,52,99,85,77,80,15280,2147759414,2147428489,2148013440,2147876480,2147643401,2147055195,2148266925,2147197376,3543,4,13,1971
1375532137,5808,1019.5700073242188000,49.7020683288574200,676.1212158203125000,4.0957779884338380,53.7872695922851560,53,101,88,78,79,15278,2147758848,2147425426,2148014518,2147876416,2147640859,2147051968,2148263296,2147199689,2953,4,13,49171
1375535737,5806,1012.5100097656250000,49.9436492919921900,676.6134033203125000,4.0794830322265625,53.7613601684570300,53,98,83,80,79,15280,2147755766,2147427264,2148013814,2147873700,2147641837,2147049636,2148262006,2147198436,3292,3,13,63252
1375539337,5810,1012.1699829101562000,49.9046401977539060,677.0336303710938000,4.0655708312988280,53.7750816345214840,51,98,88,78,79,15279,2147754834,2147424941,2148013641,2147875465,2147645476,2147052772,2148257252,2147197888,74,4,13,44816
1375542937,5810,1010.7999877929688000,50.4126510620117200,677.2625732421875000,4.0579848289489750,53.7021789550781250,52,98,86,79,79,15278,2147759670,2147425837,2148015616,2147873883,2147644297,2147051419,2148262710,2147194980,52,4,13,41990
1375546537,5809,1007.1500244140625000,50.2279586791992200,677.3856201171875000,4.0539150238037110,53.7320785522460940,53,99,86,80,79,15275,2147755337,2147421769,2148014482,2147879451,2147644141,2147053641,2148261028,2147197467,3391,4,13,43346
1375550137,5809,1015.2399902343750000,50.3663406372070300,677.5438232421875000,4.0486760139465330,53.7189483642578100,52,97,83,78,79,15274,2147758390,2147423926,2148013110,2147877056,2147642944,2147049810,2148265033,2147196242,278,4,13,61432
1375553737,5808,1015.0499877929688000,49.9308891296386700,677.3477783203125000,4.0551638603210450,53.7705993652343750,52,97,83,79,79,15261,2147756214,2147424941,2148014582,2147874715,2147646381,2147051364,2148258898,2147197284,141,4,13,35939
1375556155,5811,1012.6099853515625000,49.9994010925293000,677.7382812500000000,4.0422291755676270,53.7645988464355500,53,97,87,79,81,15286,2147755117,2147424621,2148014628,2147875693,2147643830,2147050084,2148260196,2147195812,3518,4,13,43905
